Time,TemperatureF,DewpointF,PressureIn,WindDirection,WindDirectionDegrees,WindSpeedMPH,WindSpeedGustMPH,Humidity,HourlyPrecipIn,Conditions,Clouds,dailyrainin,SoftwareType,DateUTC
2013-02-23 00:03:00,37.4,34.7,29.94,West,277,1.0,9.0,90,0.00,-RA,-RA,0.51,WeatherDisplay:10.37,2013-02-23 08:03:00,
2013-02-23 00:08:00,37.5,34.8,29.94,West,265,1.0,5.0,90,0.00,-RA,-RA,0.51,WeatherDisplay:10.37,2013-02-23 08:08:00,
2013-02-23 00:18:00,37.5,34.8,29.94,WSW,247,2.0,6.0,90,0.00,-RA,-RA,0.51,WeatherDisplay:10.37,2013-02-23 08:18:00,
2013-02-23 00:23:00,37.6,34.7,29.94,WSW,252,2.0,6.0,89,0.00,-RA,-RA,0.51,WeatherDisplay:10.37,2013-02-23 08:23:00,
2013-02-23 00:28:00,37.6,34.6,29.95,WSW,250,1.0,6.0,89,0.00,-RA,-RA,0.51,WeatherDisplay:10.37,2013-02-23 08:28:00,
2013-02-23 00:33:00,37.6,34.7,29.94,SW,234,3.0,10.0,89,0.00,-RA,-RA,0.51,WeatherDisplay:10.37,2013-02-23 08:33:00,
2013-02-23 00:38:00,37.5,34.6,29.94,WSW,252,2.0,7.0,89,0.00,-RA,-RA,0.51,WeatherDisplay:10.37,2013-02-23 08:38:00,
2013-02-23 00:43:00,37.5,34.8,29.95,WSW,254,1.0,6.0,90,0.00,-RA,-RA,0.51,WeatherDisplay:10.37,2013-02-23 08:43:00,
2013-02-23 00:48:00,37.5,34.8,29.95,WSW,254,1.0,5.0,90,0.00,-RA,-RA,0.51,WeatherDisplay:10.37,2013-02-23 08:48:00,
2013-02-23 00:53:00,37.5,34.5,29.95,WSW,249,2.0,5.0,89,0.00,-RA,-RA,0.51,WeatherDisplay:10.37,2013-02-23 08:53:00,
2013-02-23 00:58:00,37.5,34.5,29.95,WSW,252,3.0,7.0,89,0.00,-RA,-RA,0.51,WeatherDisplay:10.37,2013-02-23 08:58:00,
2013-02-23 01:03:00,37.5,34.6,29.95,WSW,252,2.0,7.0,89,0.00,-RA,-RA,0.51,WeatherDisplay:10.37,2013-02-23 09:03:00,
2013-02-23 01:08:00,37.5,34.8,29.96,WSW,253,2.0,5.0,90,0.00,-RA,-RA,0.51,WeatherDisplay:10.37,2013-02-23 09:08:00,
2013-02-23 01:13:00,37.4,34.7,29.95,West,259,1.0,4.0,90,0.00,-RA,-RA,0.51,WeatherDisplay:10.37,2013-02-23 09:13:00,
2013-02-23 01:18:00,37.4,34.7,29.96,WSW,243,3.0,10.0,90,0.00,-RA,-RA,0.51,WeatherDisplay:10.37,2013-02-23 09:18:00,
2013-02-23 01:23:00,37.4,34.7,29.96,WSW,257,2.0,6.0,90,0.00,-RA,-RA,0.51,WeatherDisplay:10.37,2013-02-23 09:23:00,
2013-02-23 01:28:00,37.3,34.6,29.97,West,259,2.0,6.0,90,0.00,-RA,-RA,0.51,WeatherDisplay:10.37,2013-02-23 09:28:00,
2013-02-23 01:33:00,37.3,34.6,29.97,WSW,241,3.0,7.0,90,0.00,-RA,-RA,0.51,WeatherDisplay:10.37,2013-02-23 09:33:00,
2013-02-23 01:38:00,37.4,34.7,29.97,WSW,244,2.0,8.0,90,0.00,-RA,-RA,0.51,WeatherDisplay:10.37,2013-02-23 09:38:00,
2013-02-23 01:43:00,37.4,34.5,29.97,WSW,247,1.0,7.0,89,0.00,-RA,-RA,0.51,WeatherDisplay:10.37,2013-02-23 09:43:00,
2013-02-23 01:48:00,37.5,34.6,29.98,WSW,238,3.0,9.0,89,0.00,-RA,-RA,0.51,WeatherDisplay:10.37,2013-02-23 09:48:00,
2013-02-23 01:53:00,37.4,34.7,29.98,WSW,241,1.0,5.0,90,0.00,-RA,-RA,0.51,WeatherDisplay:10.37,2013-02-23 09:53:00,
2013-02-23 01:58:00,37.4,34.7,29.98,West,259,2.0,5.0,90,0.00,-RA,-RA,0.51,WeatherDisplay:10.37,2013-02-23 09:58:00,
2013-02-23 02:03:00,37.3,34.6,29.97,WSW,250,1.0,6.0,90,0.00,-RA,-RA,0.51,WeatherDisplay:10.37,2013-02-23 10:03:00,
2013-02-23 02:08:00,37.3,34.6,29.98,SW,232,1.0,2.0,90,0.00,-RA,-RA,0.51,WeatherDisplay:10.37,2013-02-23 10:08:00,
2013-02-23 02:13:00,37.3,34.6,29.98,WSW,249,3.0,5.0,90,0.00,-RA,-RA,0.51,WeatherDisplay:10.37,2013-02-23 10:13:00,
2013-02-23 02:18:00,37.3,34.6,29.98,WSW,247,1.0,3.0,90,0.00,-RA,-RA,0.51,WeatherDisplay:10.37,2013-02-23 10:18:00,
2013-02-23 02:23:00,37.3,34.6,29.98,SW,232,0.0,3.0,90,0.00,-RA,-RA,0.51,WeatherDisplay:10.37,2013-02-23 10:23:00,
2013-02-23 02:28:00,37.3,34.6,29.98,WSW,255,1.0,6.0,90,0.00,-RA,-RA,0.51,WeatherDisplay:10.37,2013-02-23 10:28:00,
2013-02-23 02:33:00,37.3,34.6,29.98,WSW,255,1.0,6.0,90,0.00,-RA,-RA,0.51,WeatherDisplay:10.37,2013-02-23 10:33:00,
2013-02-23 02:38:00,37.3,34.6,29.98,WSW,249,1.0,5.0,90,0.00,-RA,-RA,0.51,WeatherDisplay:10.37,2013-02-23 10:38:00,
2013-02-23 02:43:00,37.3,34.6,29.98,West,277,1.0,5.0,90,0.00,-RA,-RA,0.51,WeatherDisplay:10.37,2013-02-23 10:43:00,
2013-02-23 02:53:00,37.3,34.6,29.98,West,274,1.0,5.0,90,0.00,-RA,-RA,0.51,WeatherDisplay:10.37,2013-02-23 10:53:00,
2013-02-23 02:58:00,37.3,34.6,29.98,West,277,1.0,5.0,90,0.00,-RA,-RA,0.51,WeatherDisplay:10.37,2013-02-23 10:58:00,
2013-02-23 03:03:00,37.3,34.7,29.99,WSW,249,1.0,7.0,90,0.00,-RA,-RA,0.51,WeatherDisplay:10.37,2013-02-23 11:03:00,
2013-02-23 03:13:00,37.4,34.7,29.99,West,273,2.0,4.0,90,0.00,-RA,-RA,0.51,WeatherDisplay:10.37,2013-02-23 11:13:00,
2013-02-23 03:18:00,37.4,34.7,29.99,West,265,1.0,4.0,90,0.00,-RA,-RA,0.51,WeatherDisplay:10.37,2013-02-23 11:18:00,
2013-02-23 03:23:00,37.3,34.7,29.99,WSW,251,1.0,3.0,90,0.00,-RA,-RA,0.51,WeatherDisplay:10.37,2013-02-23 11:23:00,
2013-02-23 03:28:00,37.3,34.6,30.00,West,263,1.0,5.0,90,0.00,-RA,-RA,0.51,WeatherDisplay:10.37,2013-02-23 11:28:00,
2013-02-23 03:33:00,37.3,34.9,30.00,West,268,0.0,5.0,91,0.00,-RA,-RA,0.51,WeatherDisplay:10.37,2013-02-23 11:33:00,
2013-02-23 03:43:00,37.2,35.1,30.00,West,265,1.0,3.0,92,0.00,-RA,-RA,0.51,WeatherDisplay:10.37,2013-02-23 11:43:00,
2013-02-23 03:48:00,37.2,35.0,30.00,WSW,250,0.0,5.0,92,0.00,-RA,-RA,0.51,WeatherDisplay:10.37,2013-02-23 11:48:00,
2013-02-23 03:53:00,37.2,35.1,30.00,WSW,252,0.0,2.0,92,0.00,-RA,-RA,0.51,WeatherDisplay:10.37,2013-02-23 11:53:00,
2013-02-23 03:58:00,37.2,35.1,30.00,West,266,0.0,4.0,92,0.00,-RA,-RA,0.51,WeatherDisplay:10.37,2013-02-23 11:58:00,
2013-02-23 04:03:00,37.2,35.1,30.01,West,265,0.0,3.0,92,0.00,-RA,-RA,0.51,WeatherDisplay:10.37,2013-02-23 12:03:00,
2013-02-23 04:08:00,37.3,35.2,30.01,WSW,248,0.0,2.0,92,0.00,-RA,-RA,0.51,WeatherDisplay:10.37,2013-02-23 12:08:00,
2013-02-23 04:13:00,37.4,35.3,30.01,WSW,240,1.0,2.0,92,0.00,-RA,-RA,0.51,WeatherDisplay:10.37,2013-02-23 12:13:00,
2013-02-23 04:18:00,37.4,35.3,30.01,SW,227,0.0,2.0,92,0.00,-RA,-RA,0.51,WeatherDisplay:10.37,2013-02-23 12:18:00,
2013-02-23 04:23:00,37.5,35.4,30.01,WSW,244,0.0,3.0,92,0.00,-RA,-RA,0.51,WeatherDisplay:10.37,2013-02-23 12:23:00,
2013-02-23 04:28:00,37.5,35.4,30.02,SSW,211,1.0,2.0,92,0.00,-RA,-RA,0.51,WeatherDisplay:10.37,2013-02-23 12:28:00,
2013-02-23 04:33:00,37.5,35.4,30.02,SSW,211,0.0,2.0,92,0.00,-RA,-RA,0.51,WeatherDisplay:10.37,2013-02-23 12:33:00,
2013-02-23 04:38:00,37.5,35.4,30.02,SSW,204,0.0,2.0,92,0.00,-RA,-RA,0.51,WeatherDisplay:10.37,2013-02-23 12:38:00,
2013-02-23 04:43:00,37.5,35.4,30.02,SE,130,0.0,2.0,92,0.00,-RA,-RA,0.51,WeatherDisplay:10.37,2013-02-23 12:43:00,
2013-02-23 04:48:00,37.6,35.5,30.03,SSE,159,0.0,1.0,92,0.00,-RA,-RA,0.51,WeatherDisplay:10.37,2013-02-23 12:48:00,
2013-02-23 04:53:00,37.6,35.5,30.03,SW,230,0.0,2.0,92,0.00,-RA,-RA,0.51,WeatherDisplay:10.37,2013-02-23 12:53:00,
2013-02-23 04:58:00,37.7,35.3,30.03,WSW,243,1.0,3.0,91,0.00,-RA,-RA,0.51,WeatherDisplay:10.37,2013-02-23 12:58:00,
2013-02-23 05:03:00,37.7,35.6,30.04,WSW,239,0.0,1.0,92,0.00,-RA,-RA,0.51,WeatherDisplay:10.37,2013-02-23 13:03:00,
2013-02-23 05:08:00,37.7,35.6,30.04,SSW,196,0.0,2.0,92,0.00,-RA,-RA,0.51,WeatherDisplay:10.37,2013-02-23 13:08:00,
2013-02-23 05:13:00,37.7,35.6,30.04,SSE,168,0.0,1.0,92,0.00,-RA,-RA,0.51,WeatherDisplay:10.37,2013-02-23 13:13:00,
2013-02-23 05:18:00,37.7,35.6,30.04,SW,218,0.0,3.0,92,0.00,-RA,-RA,0.51,WeatherDisplay:10.37,2013-02-23 13:18:00,
2013-02-23 05:28:00,37.8,35.7,30.05,ESE,113,0.0,3.0,92,0.00,-RA,-RA,0.51,WeatherDisplay:10.37,2013-02-23 13:28:00,
2013-02-23 05:33:00,37.8,35.7,30.05,SE,142,1.0,4.0,92,0.00,-RA,-RA,0.51,WeatherDisplay:10.37,2013-02-23 13:33:00,
2013-02-23 05:38:00,37.9,35.8,30.05,WSW,244,0.0,2.0,92,0.00,-RA,-RA,0.51,WeatherDisplay:10.37,2013-02-23 13:38:00,
2013-02-23 05:43:00,37.9,35.8,30.05,WSW,253,0.0,1.0,92,0.00,-RA,-RA,0.51,WeatherDisplay:10.37,2013-02-23 13:43:00,
2013-02-23 05:48:00,37.9,35.8,30.06,East,91,0.0,1.0,92,0.00,-RA,-RA,0.51,WeatherDisplay:10.37,2013-02-23 13:48:00,
2013-02-23 05:53:00,37.9,35.8,30.06,ESE,118,0.0,2.0,92,0.00,-RA,-RA,0.51,WeatherDisplay:10.37,2013-02-23 13:53:00,
2013-02-23 05:58:00,37.9,35.8,30.06,SW,214,0.0,2.0,92,0.00,-RA,-RA,0.51,WeatherDisplay:10.37,2013-02-23 13:58:00,
2013-02-23 06:03:00,37.9,35.8,30.07,WSW,255,0.0,1.0,92,0.00,-RA,-RA,0.51,WeatherDisplay:10.37,2013-02-23 14:03:00,
2013-02-23 06:08:00,38.0,35.9,30.07,SW,234,0.0,2.0,92,0.00,-RA,-RA,0.51,WeatherDisplay:10.37,2013-02-23 14:08:00,
2013-02-23 06:13:00,38.0,35.9,30.07,SW,232,0.0,2.0,92,0.00,-RA,-RA,0.51,WeatherDisplay:10.37,2013-02-23 14:13:00,
2013-02-23 06:18:00,38.0,35.9,30.07,SSW,204,0.0,1.0,92,0.00,-RA,-RA,0.51,WeatherDisplay:10.37,2013-02-23 14:18:00,
2013-02-23 06:23:00,38.0,35.9,30.07,South,185,0.0,1.0,92,0.00,-RA,-RA,0.51,WeatherDisplay:10.37,2013-02-23 14:23:00,
2013-02-23 06:28:00,38.1,36.0,30.08,SW,224,1.0,3.0,92,0.00,-RA,-RA,0.51,WeatherDisplay:10.37,2013-02-23 14:28:00,
2013-02-23 06:33:00,38.1,36.0,30.08,NNW,348,0.0,1.0,92,0.00,-RA,-RA,0.51,WeatherDisplay:10.37,2013-02-23 14:33:00,
2013-02-23 06:38:00,38.1,36.0,30.08,NE,49,0.0,1.0,92,0.00,-RA,-RA,0.51,WeatherDisplay:10.37,2013-02-23 14:38:00,
2013-02-23 06:43:00,38.1,36.0,30.08,NE,51,0.0,2.0,92,0.00,-RA,-RA,0.51,WeatherDisplay:10.37,2013-02-23 14:43:00,
2013-02-23 06:48:00,38.1,36.0,30.09,SW,225,0.0,2.0,92,0.00,-RA,-RA,0.51,WeatherDisplay:10.37,2013-02-23 14:48:00,
2013-02-23 06:53:00,38.2,36.0,30.09,SSW,198,0.0,2.0,92,0.00,-RA,-RA,0.51,WeatherDisplay:10.37,2013-02-23 14:53:00,
2013-02-23 06:58:00,38.2,36.1,30.09,SW,231,0.0,1.0,92,0.00,-RA,-RA,0.51,WeatherDisplay:10.37,2013-02-23 14:58:00,
2013-02-23 07:03:00,38.2,36.1,30.09,SW,228,0.0,2.0,92,0.00,-RA,-RA,0.00,WeatherDisplay:10.37,2013-02-23 15:03:00,
2013-02-23 07:08:00,38.3,36.2,30.10,South,177,0.0,2.0,92,0.00,-RA,-RA,0.00,WeatherDisplay:10.37,2013-02-23 15:08:00,
2013-02-23 07:13:00,38.3,36.2,30.10,WSW,248,0.0,1.0,92,0.00,-RA,-RA,0.00,WeatherDisplay:10.37,2013-02-23 15:13:00,
2013-02-23 07:18:00,38.4,36.2,30.10,South,173,0.0,1.0,92,0.00,-RA,-RA,0.00,WeatherDisplay:10.37,2013-02-23 15:18:00,
2013-02-23 07:23:00,38.4,36.3,30.11,East,96,0.0,0.0,92,0.00,-RA,-RA,0.00,WeatherDisplay:10.37,2013-02-23 15:23:00,
2013-02-23 07:28:00,38.4,36.3,30.11,ESE,117,0.0,2.0,92,0.00,-RA,-RA,0.00,WeatherDisplay:10.37,2013-02-23 15:28:00,
2013-02-23 07:33:00,38.5,36.1,30.11,WSW,251,1.0,2.0,91,0.00,-RA,-RA,0.00,WeatherDisplay:10.37,2013-02-23 15:33:00,
2013-02-23 07:38:00,38.6,36.2,30.12,WSW,254,0.0,1.0,91,0.00,-RA,-RA,0.00,WeatherDisplay:10.37,2013-02-23 15:38:00,
2013-02-23 07:43:00,38.6,36.2,30.12,WSW,250,0.0,2.0,91,0.00,-RA,-RA,0.00,WeatherDisplay:10.37,2013-02-23 15:43:00,
2013-02-23 07:48:00,38.7,36.3,30.12,WSW,241,0.0,2.0,91,0.00,-RA,-RA,0.00,WeatherDisplay:10.37,2013-02-23 15:48:00,
2013-02-23 07:53:00,38.7,36.3,30.12,SW,225,0.0,2.0,91,0.00,-RA,-RA,0.00,WeatherDisplay:10.37,2013-02-23 15:53:00,
2013-02-23 07:58:00,38.7,36.3,30.12,WSW,240,1.0,5.0,91,0.00,-RA,-RA,0.00,WeatherDisplay:10.37,2013-02-23 15:58:00,
2013-02-23 08:03:00,38.8,36.4,30.13,WSW,252,0.0,1.0,91,0.00,-RA,-RA,0.00,WeatherDisplay:10.37,2013-02-23 16:03:00,
2013-02-23 08:08:00,38.9,36.5,30.12,WSW,258,0.0,2.0,91,0.00,-RA,-RA,0.00,WeatherDisplay:10.37,2013-02-23 16:08:00,
2013-02-23 08:13:00,38.9,36.5,30.13,WSW,256,1.0,5.0,91,0.00,-RA,-RA,0.00,WeatherDisplay:10.37,2013-02-23 16:13:00,
2013-02-23 08:18:00,39.0,36.3,30.14,WSW,251,1.0,4.0,90,0.00,-RA,-RA,0.00,WeatherDisplay:10.37,2013-02-23 16:18:00,
2013-02-23 08:28:00,39.2,36.5,30.14,West,276,1.0,2.0,90,0.00,-RA,-RA,0.00,WeatherDisplay:10.37,2013-02-23 16:28:00,
2013-02-23 08:33:00,39.2,36.5,30.14,WSW,245,1.0,6.0,90,0.00,-RA,-RA,0.00,WeatherDisplay:10.37,2013-02-23 16:33:00,
2013-02-23 08:38:00,39.3,36.6,30.14,SW,230,1.0,3.0,90,0.00,-RA,-RA,0.00,WeatherDisplay:10.37,2013-02-23 16:38:00,
2013-02-23 08:43:00,39.4,36.4,30.15,WSW,252,1.0,4.0,89,0.00,-RA,-RA,0.00,WeatherDisplay:10.37,2013-02-23 16:43:00,
2013-02-23 08:48:00,39.5,36.5,30.15,WSW,256,1.0,3.0,89,0.00,-RA,-RA,0.00,WeatherDisplay:10.37,2013-02-23 16:48:00,
2013-02-23 08:53:00,39.6,36.6,30.16,WSW,257,0.0,2.0,89,0.00,-RA,-RA,0.00,WeatherDisplay:10.37,2013-02-23 16:53:00,
2013-02-23 08:58:00,39.7,36.7,30.16,WSW,245,1.0,3.0,89,0.00,-RA,-RA,0.00,WeatherDisplay:10.37,2013-02-23 16:58:00,
2013-02-23 09:03:00,39.7,36.8,30.17,SW,216,1.0,3.0,89,0.00,-RA,-RA,0.00,WeatherDisplay:10.37,2013-02-23 17:03:00,
2013-02-23 09:08:00,39.8,36.5,30.17,WSW,257,2.0,6.0,88,0.00,-RA,-RA,0.00,WeatherDisplay:10.37,2013-02-23 17:08:00,
2013-02-23 09:13:00,39.8,36.5,30.17,WSW,255,0.0,4.0,88,0.00,-RA,-RA,0.00,WeatherDisplay:10.37,2013-02-23 17:13:00,
2013-02-23 09:18:00,39.9,36.7,30.17,WSW,247,1.0,2.0,88,0.00,-RA,-RA,0.00,WeatherDisplay:10.37,2013-02-23 17:18:00,
2013-02-23 09:23:00,40.1,36.8,30.18,WSW,248,1.0,4.0,88,0.00,-RA,-RA,0.00,WeatherDisplay:10.37,2013-02-23 17:23:00,
2013-02-23 09:28:00,40.4,37.1,30.18,WSW,254,1.0,2.0,88,0.00,-RA,-RA,0.00,WeatherDisplay:10.37,2013-02-23 17:28:00,
2013-02-23 09:33:00,40.5,37.2,30.18,WSW,253,1.0,3.0,88,0.00,-RA,-RA,0.00,WeatherDisplay:10.37,2013-02-23 17:33:00,
2013-02-23 09:38:00,40.5,36.9,30.19,WSW,252,1.0,4.0,87,0.00,-RA,-RA,0.00,WeatherDisplay:10.37,2013-02-23 17:38:00,
2013-02-23 09:43:00,40.5,36.6,30.19,WSW,256,1.0,4.0,86,0.00,-RA,-RA,0.00,WeatherDisplay:10.37,2013-02-23 17:43:00,
2013-02-23 09:48:00,40.5,36.9,30.19,SW,222,0.0,3.0,87,0.00,-RA,-RA,0.00,WeatherDisplay:10.37,2013-02-23 17:48:00,
2013-02-23 09:53:00,40.6,37.0,30.19,SSW,209,0.0,1.0,87,0.00,-RA,-RA,0.00,WeatherDisplay:10.37,2013-02-23 17:53:00,
2013-02-23 09:58:00,40.6,36.7,30.20,West,264,2.0,4.0,86,0.00,-RA,-RA,0.00,WeatherDisplay:10.37,2013-02-23 17:58:00,
2013-02-23 10:03:00,40.7,37.1,30.20,West,275,0.0,3.0,87,0.00,-RA,-RA,0.00,WeatherDisplay:10.37,2013-02-23 18:03:00,
2013-02-23 10:08:00,40.8,36.9,30.20,West,269,1.0,3.0,86,0.00,-RA,-RA,0.00,WeatherDisplay:10.37,2013-02-23 18:08:00,
2013-02-23 10:13:00,40.9,37.0,30.20,West,260,0.0,3.0,86,0.00,-RA,-RA,0.00,WeatherDisplay:10.37,2013-02-23 18:13:00,
2013-02-23 10:18:00,40.9,37.1,30.20,WSW,258,1.0,3.0,86,0.00,-RA,-RA,0.00,WeatherDisplay:10.37,2013-02-23 18:18:00,
2013-02-23 10:23:00,41.0,36.8,30.20,WSW,255,1.0,3.0,85,0.00,-RA,-RA,0.00,WeatherDisplay:10.37,2013-02-23 18:23:00,
2013-02-23 10:28:00,41.1,37.2,30.20,SW,221,0.0,3.0,86,0.00,-RA,-RA,0.00,WeatherDisplay:10.37,2013-02-23 18:28:00,
2013-02-23 10:33:00,41.3,37.4,30.21,SW,222,1.0,3.0,86,0.00,-RA,-RA,0.00,WeatherDisplay:10.37,2013-02-23 18:33:00,
2013-02-23 10:38:00,41.4,36.9,30.21,SW,235,1.0,5.0,84,0.00,-RA,-RA,0.00,WeatherDisplay:10.37,2013-02-23 18:38:00,
2013-02-23 10:43:00,41.6,37.4,30.21,WSW,249,0.0,2.0,85,0.00,-RA,-RA,0.00,WeatherDisplay:10.37,2013-02-23 18:43:00,
2013-02-23 10:48:00,41.7,37.2,30.21,West,264,1.0,3.0,84,0.00,-RA,-RA,0.00,WeatherDisplay:10.37,2013-02-23 18:48:00,
2013-02-23 10:53:00,41.8,37.3,30.22,WSW,247,0.0,3.0,84,0.00,-RA,-RA,0.00,WeatherDisplay:10.37,2013-02-23 18:53:00,
2013-02-23 10:58:00,41.8,37.0,30.22,WSW,256,0.0,2.0,83,0.00,-RA,-RA,0.00,WeatherDisplay:10.37,2013-02-23 18:58:00,
2013-02-23 11:03:00,41.9,37.1,30.22,WSW,247,0.0,4.0,83,0.00,-RA,-RA,0.00,WeatherDisplay:10.37,2013-02-23 19:03:00,
2013-02-23 11:08:00,42.0,37.2,30.22,South,188,1.0,4.0,83,0.00,-RA,-RA,0.00,WeatherDisplay:10.37,2013-02-23 19:08:00,
2013-02-23 11:13:00,42.1,37.3,30.22,SW,225,1.0,4.0,83,0.00,-RA,-RA,0.00,WeatherDisplay:10.37,2013-02-23 19:13:00,
2013-02-23 11:18:00,42.3,37.5,30.22,WSW,238,0.0,2.0,83,0.00,-RA,-RA,0.00,WeatherDisplay:10.37,2013-02-23 19:18:00,
2013-02-23 11:23:00,42.5,37.7,30.23,SW,234,1.0,3.0,83,0.00,-RA,-RA,0.00,WeatherDisplay:10.37,2013-02-23 19:23:00,
2013-02-23 11:28:00,42.5,37.4,30.23,SW,236,1.0,2.0,82,0.00,-RA,-RA,0.00,WeatherDisplay:10.37,2013-02-23 19:28:00,
2013-02-23 11:33:00,42.7,37.6,30.23,WSW,242,1.0,2.0,82,0.00,-RA,-RA,0.00,WeatherDisplay:10.37,2013-02-23 19:33:00,
2013-02-23 11:38:00,42.9,37.8,30.23,West,275,1.0,3.0,82,0.00,-RA,-RA,0.00,WeatherDisplay:10.37,2013-02-23 19:38:00,
2013-02-23 11:43:00,43.2,38.4,30.23,WNW,292,0.0,1.0,83,0.00,-RA,-RA,0.00,WeatherDisplay:10.37,2013-02-23 19:43:00,
2013-02-23 11:48:00,43.4,38.0,30.23,WSW,247,1.0,3.0,81,0.00,-RA,-RA,0.00,WeatherDisplay:10.37,2013-02-23 19:48:00,
2013-02-23 11:53:00,43.6,38.2,30.23,WSW,239,0.0,2.0,81,0.00,-RA,-RA,0.00,WeatherDisplay:10.37,2013-02-23 19:53:00,
2013-02-23 11:58:00,43.9,38.1,30.23,WSW,257,1.0,3.0,80,0.00,-RA,-RA,0.00,WeatherDisplay:10.37,2013-02-23 19:58:00,
2013-02-23 12:03:00,44.1,38.0,30.23,SW,224,1.0,3.0,79,0.00,-RA,-RA,0.00,WeatherDisplay:10.37,2013-02-23 20:03:00,
2013-02-23 12:08:00,44.2,37.8,30.23,WSW,240,0.0,3.0,78,0.00,-RA,-RA,0.00,WeatherDisplay:10.37,2013-02-23 20:08:00,
2013-02-23 12:13:00,44.7,38.6,30.23,SW,235,0.0,1.0,79,0.00,-RA,-RA,0.00,WeatherDisplay:10.37,2013-02-23 20:13:00,
2013-02-23 12:18:00,45.6,38.8,30.23,WSW,245,1.0,4.0,77,0.00,-RA,-RA,0.00,WeatherDisplay:10.37,2013-02-23 20:18:00,
2013-02-23 12:23:00,45.7,38.6,30.22,West,271,1.0,5.0,76,0.00,-RA,-RA,0.00,WeatherDisplay:10.37,2013-02-23 20:23:00,
2013-02-23 12:28:00,45.7,38.2,30.23,WSW,242,0.0,2.0,75,0.00,-RA,-RA,0.00,WeatherDisplay:10.37,2013-02-23 20:28:00,
2013-02-23 12:33:00,45.7,37.5,30.23,WSW,255,0.0,3.0,73,0.00,-RA,-RA,0.00,WeatherDisplay:10.37,2013-02-23 20:33:00,
2013-02-23 12:38:00,45.7,37.5,30.23,WSW,246,2.0,5.0,73,0.00,-RA,-RA,0.00,WeatherDisplay:10.37,2013-02-23 20:38:00,
2013-02-23 12:43:00,45.6,37.4,30.22,WSW,254,1.0,3.0,73,0.00,-RA,-RA,0.00,WeatherDisplay:10.37,2013-02-23 20:43:00,
2013-02-23 12:48:00,45.6,37.8,30.23,West,261,1.0,3.0,74,0.00,-RA,-RA,0.00,WeatherDisplay:10.37,2013-02-23 20:48:00,
2013-02-23 12:53:00,45.8,37.7,30.23,WSW,243,0.0,2.0,73,0.00,-RA,-RA,0.00,WeatherDisplay:10.37,2013-02-23 20:53:00,
2013-02-23 12:58:00,46.1,37.6,30.22,WSW,250,2.0,4.0,72,0.00,-RA,-RA,0.00,WeatherDisplay:10.37,2013-02-23 20:58:00,
2013-02-23 13:03:00,46.1,37.9,30.22,WSW,249,1.0,3.0,73,0.00,-RA,-RA,0.00,WeatherDisplay:10.37,2013-02-23 21:03:00,
2013-02-23 13:08:00,46.3,37.8,30.22,WSW,240,1.0,2.0,72,0.00,-RA,-RA,0.00,WeatherDisplay:10.37,2013-02-23 21:08:00,
2013-02-23 13:18:00,46.4,37.5,30.23,WSW,249,0.0,2.0,71,0.00,-RA,-RA,0.00,WeatherDisplay:10.37,2013-02-23 21:18:00,
2013-02-23 13:23:00,46.3,37.8,30.23,West,278,0.0,2.0,72,0.00,-RA,-RA,0.00,WeatherDisplay:10.37,2013-02-23 21:23:00,
2013-02-23 13:28:00,46.3,36.7,30.23,WNW,294,1.0,4.0,69,0.00,-RA,-RA,0.00,WeatherDisplay:10.37,2013-02-23 21:28:00,
2013-02-23 13:33:00,46.1,37.2,30.23,WSW,256,0.0,1.0,71,0.00,-RA,-RA,0.00,WeatherDisplay:10.37,2013-02-23 21:33:00,
2013-02-23 13:43:00,45.9,37.1,30.23,West,277,0.0,1.0,71,0.00,-RA,-RA,0.00,WeatherDisplay:10.37,2013-02-23 21:43:00,
2013-02-23 13:48:00,46.2,37.7,30.23,West,274,0.0,1.0,72,0.00,-RA,-RA,0.00,WeatherDisplay:10.37,2013-02-23 21:48:00,
2013-02-23 13:53:00,46.8,38.2,30.23,WSW,257,0.0,1.0,72,0.00,-RA,-RA,0.00,WeatherDisplay:10.37,2013-02-23 21:53:00,
2013-02-23 13:58:00,47.7,39.1,30.23,WSW,247,0.0,2.0,72,0.00,-RA,-RA,0.00,WeatherDisplay:10.37,2013-02-23 21:58:00,
2013-02-23 14:03:00,48.9,38.4,30.23,WSW,244,1.0,3.0,67,0.00,-RA,-RA,0.00,WeatherDisplay:10.37,2013-02-23 22:03:00,
2013-02-23 14:08:00,49.2,37.5,30.23,WSW,248,1.0,5.0,64,0.00,-RA,-RA,0.00,WeatherDisplay:10.37,2013-02-23 22:08:00,
2013-02-23 14:13:00,49.3,36.8,30.23,WSW,242,2.0,5.0,62,0.00,-RA,-RA,0.00,WeatherDisplay:10.37,2013-02-23 22:13:00,
2013-02-23 14:18:00,49.4,36.9,30.23,WSW,252,1.0,6.0,62,0.00,-RA,-RA,0.00,WeatherDisplay:10.37,2013-02-23 22:18:00,
2013-02-23 14:23:00,50.0,37.0,30.23,WSW,255,0.0,3.0,61,0.00,-RA,-RA,0.00,WeatherDisplay:10.37,2013-02-23 22:23:00,
2013-02-23 14:28:00,50.5,37.2,30.24,WSW,250,1.0,3.0,60,0.00,-RA,-RA,0.00,WeatherDisplay:10.37,2013-02-23 22:28:00,
2013-02-23 14:33:00,50.2,37.2,30.24,West,261,0.0,3.0,61,0.00,-RA,-RA,0.00,WeatherDisplay:10.37,2013-02-23 22:33:00,
2013-02-23 14:38:00,49.7,36.4,30.24,North,2,0.0,3.0,60,0.00,-RA,-RA,0.00,WeatherDisplay:10.37,2013-02-23 22:38:00,
2013-02-23 14:43:00,49.2,36.8,30.24,NNW,332,0.0,1.0,62,0.00,-RA,-RA,0.00,WeatherDisplay:10.37,2013-02-23 22:43:00,
2013-02-23 14:48:00,48.9,36.4,30.25,West,270,0.0,1.0,62,0.00,-RA,-RA,0.00,WeatherDisplay:10.37,2013-02-23 22:48:00,
2013-02-23 14:53:00,48.7,36.7,30.25,West,259,0.0,2.0,63,0.00,-RA,-RA,0.00,WeatherDisplay:10.37,2013-02-23 22:53:00,
2013-02-23 14:58:00,48.7,36.7,30.25,WSW,240,0.0,2.0,63,0.00,-RA,-RA,0.00,WeatherDisplay:10.37,2013-02-23 22:58:00,
2013-02-23 15:03:00,49.0,36.9,30.25,WSW,257,0.0,2.0,63,0.00,-RA,-RA,0.00,WeatherDisplay:10.37,2013-02-23 23:03:00,
2013-02-23 15:08:00,48.9,36.4,30.25,WSW,257,0.0,3.0,62,0.00,-RA,-RA,0.00,WeatherDisplay:10.37,2013-02-23 23:08:00,
2013-02-23 15:13:00,48.7,36.3,30.25,West,262,0.0,3.0,62,0.00,-RA,-RA,0.00,WeatherDisplay:10.37,2013-02-23 23:13:00,
2013-02-23 15:18:00,48.4,36.3,30.25,West,267,0.0,2.0,63,0.00,-RA,-RA,0.00,WeatherDisplay:10.37,2013-02-23 23:18:00,
2013-02-23 15:23:00,48.4,36.4,30.26,SW,234,0.0,1.0,63,0.00,-RA,-RA,0.00,WeatherDisplay:10.37,2013-02-23 23:23:00,
2013-02-23 15:28:00,48.2,36.6,30.26,WSW,238,1.0,4.0,64,0.00,-RA,-RA,0.00,WeatherDisplay:10.37,2013-02-23 23:28:00,
2013-02-23 15:33:00,48.1,36.5,30.26,SW,227,0.0,2.0,64,0.00,-RA,-RA,0.00,WeatherDisplay:10.37,2013-02-23 23:33:00,
2013-02-23 15:38:00,48.1,36.9,30.26,SW,225,1.0,3.0,65,0.00,-RA,-RA,0.00,WeatherDisplay:10.37,2013-02-23 23:38:00,
2013-02-23 15:43:00,47.7,36.9,30.26,WSW,237,1.0,2.0,66,0.00,-RA,-RA,0.00,WeatherDisplay:10.37,2013-02-23 23:43:00,
2013-02-23 15:48:00,47.2,36.5,30.26,WSW,242,0.0,1.0,66,0.00,-RA,-RA,0.00,WeatherDisplay:10.37,2013-02-23 23:48:00,
2013-02-23 15:53:00,47.1,36.3,30.26,SW,231,0.0,2.0,66,0.00,-RA,-RA,0.00,WeatherDisplay:10.37,2013-02-23 23:53:00,
2013-02-23 15:58:00,46.9,36.1,30.27,SW,229,1.0,3.0,66,0.00,-RA,-RA,0.00,WeatherDisplay:10.37,2013-02-23 23:58:00,
2013-02-23 16:03:00,46.9,36.5,30.27,SW,236,0.0,2.0,67,0.00,-RA,-RA,0.00,WeatherDisplay:10.37,2013-02-24 00:03:00,
2013-02-23 16:08:00,46.9,36.5,30.27,West,271,1.0,3.0,67,0.00,-RA,-RA,0.00,WeatherDisplay:10.37,2013-02-24 00:08:00,
2013-02-23 16:13:00,46.7,35.5,30.27,WSW,256,2.0,4.0,65,0.00,-RA,-RA,0.00,WeatherDisplay:10.37,2013-02-24 00:13:00,
2013-02-23 16:18:00,46.4,36.0,30.27,WSW,237,0.0,5.0,67,0.00,-RA,-RA,0.00,WeatherDisplay:10.37,2013-02-24 00:18:00,
2013-02-23 16:23:00,46.1,35.8,30.27,WSW,239,0.0,2.0,67,0.00,-RA,-RA,0.00,WeatherDisplay:10.37,2013-02-24 00:23:00,
2013-02-23 16:28:00,45.9,36.0,30.27,WSW,242,0.0,4.0,68,0.00,-RA,-RA,0.00,WeatherDisplay:10.37,2013-02-24 00:28:00,
2013-02-23 16:33:00,45.8,35.5,30.27,WSW,247,1.0,3.0,67,0.00,-RA,-RA,0.00,WeatherDisplay:10.37,2013-02-24 00:33:00,
2013-02-23 16:38:00,45.7,35.7,30.27,WSW,247,1.0,3.0,68,0.00,-RA,-RA,0.00,WeatherDisplay:10.37,2013-02-24 00:38:00,
2013-02-23 16:43:00,45.6,35.6,30.27,West,263,0.0,2.0,68,0.00,-RA,-RA,0.00,WeatherDisplay:10.37,2013-02-24 00:43:00,
2013-02-23 16:48:00,45.5,35.9,30.28,West,268,0.0,3.0,69,0.00,-RA,-RA,0.00,WeatherDisplay:10.37,2013-02-24 00:48:00,
2013-02-23 16:53:00,45.3,35.4,30.28,WSW,252,1.0,2.0,68,0.00,-RA,-RA,0.00,WeatherDisplay:10.37,2013-02-24 00:53:00,
2013-02-23 16:58:00,45.1,35.1,30.28,SW,236,0.0,2.0,68,0.00,-RA,-RA,0.00,WeatherDisplay:10.37,2013-02-24 00:58:00,
2013-02-23 17:03:00,44.8,35.2,30.28,SW,235,0.0,1.0,69,0.00,-RA,-RA,0.00,WeatherDisplay:10.37,2013-02-24 01:03:00,
2013-02-23 17:08:00,44.7,35.1,30.28,SW,235,0.0,3.0,69,0.00,-RA,-RA,0.00,WeatherDisplay:10.37,2013-02-24 01:08:00,
2013-02-23 17:13:00,44.6,35.4,30.28,SSW,200,0.0,2.0,70,0.00,-RA,-RA,0.00,WeatherDisplay:10.37,2013-02-24 01:13:00,
2013-02-23 17:18:00,44.5,35.3,30.28,South,180,0.0,0.0,70,0.00,-RA,-RA,0.00,WeatherDisplay:10.37,2013-02-24 01:18:00,
2013-02-23 17:23:00,44.5,35.7,30.28,South,180,0.0,1.0,71,0.00,-RA,-RA,0.00,WeatherDisplay:10.37,2013-02-24 01:23:00,
2013-02-23 17:28:00,44.4,35.2,30.29,SSW,209,0.0,1.0,70,0.00,-RA,-RA,0.00,WeatherDisplay:10.37,2013-02-24 01:28:00,
2013-02-23 17:33:00,44.3,34.8,30.29,SW,231,0.0,2.0,69,0.00,-RA,-RA,0.00,WeatherDisplay:10.37,2013-02-24 01:33:00,
2013-02-23 17:38:00,44.1,34.6,30.30,SW,236,0.0,1.0,69,0.00,-RA,-RA,0.00,WeatherDisplay:10.37,2013-02-24 01:38:00,
2013-02-23 17:43:00,44.1,34.6,30.30,SW,215,0.0,2.0,69,0.00,-RA,-RA,0.00,WeatherDisplay:10.37,2013-02-24 01:43:00,
2013-02-23 17:48:00,44.1,34.6,30.30,SSW,210,0.0,1.0,69,0.00,-RA,-RA,0.00,WeatherDisplay:10.37,2013-02-24 01:48:00,
2013-02-23 17:53:00,44.1,34.6,30.31,WSW,248,0.0,2.0,69,0.00,-RA,-RA,0.00,WeatherDisplay:10.37,2013-02-24 01:53:00,
2013-02-23 17:58:00,44.1,34.9,30.31,West,262,0.0,2.0,70,0.00,-RA,-RA,0.00,WeatherDisplay:10.37,2013-02-24 01:58:00,
2013-02-23 18:03:00,43.9,34.7,30.31,WSW,248,0.0,4.0,70,0.00,-RA,-RA,0.00,WeatherDisplay:10.37,2013-02-24 02:03:00,
2013-02-23 18:08:00,43.7,34.6,30.32,WSW,255,1.0,3.0,70,0.00,-RA,-RA,0.00,WeatherDisplay:10.37,2013-02-24 02:08:00,
2013-02-23 18:13:00,43.7,34.5,30.32,WNW,284,0.0,1.0,70,0.00,-RA,-RA,0.00,WeatherDisplay:10.37,2013-02-24 02:13:00,
2013-02-23 18:18:00,43.6,34.8,30.32,NNE,29,0.0,2.0,71,0.00,-RA,-RA,0.00,WeatherDisplay:10.37,2013-02-24 02:18:00,
2013-02-23 18:23:00,43.4,35.7,30.32,ESE,104,0.0,0.0,74,0.00,-RA,-RA,0.00,WeatherDisplay:10.37,2013-02-24 02:23:00,
2013-02-23 18:28:00,43.2,35.5,30.32,SE,125,0.0,1.0,74,0.00,-RA,-RA,0.00,WeatherDisplay:10.37,2013-02-24 02:28:00,
2013-02-23 18:33:00,43.0,35.6,30.32,SSE,161,0.0,1.0,75,0.00,-RA,-RA,0.00,WeatherDisplay:10.37,2013-02-24 02:33:00,
2013-02-23 18:38:00,42.9,35.2,30.32,SW,236,1.0,3.0,74,0.00,-RA,-RA,0.00,WeatherDisplay:10.37,2013-02-24 02:38:00,
2013-02-23 18:43:00,42.8,35.1,30.33,SW,226,0.0,6.0,74,0.00,-RA,-RA,0.00,WeatherDisplay:10.37,2013-02-24 02:43:00,
2013-02-23 18:48:00,42.7,35.0,30.33,SW,215,1.0,2.0,74,0.00,-RA,-RA,0.00,WeatherDisplay:10.37,2013-02-24 02:48:00,
2013-02-23 18:53:00,42.6,35.2,30.33,WSW,238,0.0,1.0,75,0.00,-RA,-RA,0.00,WeatherDisplay:10.37,2013-02-24 02:53:00,
2013-02-23 18:58:00,42.5,35.5,30.33,West,260,0.0,2.0,76,0.00,-RA,-RA,0.00,WeatherDisplay:10.37,2013-02-24 02:58:00,
2013-02-23 19:03:00,42.4,35.4,30.33,WSW,255,0.0,1.0,76,0.00,-RA,-RA,0.00,WeatherDisplay:10.37,2013-02-24 03:03:00,
2013-02-23 19:08:00,42.2,35.5,30.33,SW,220,0.0,1.0,77,0.00,-RA,-RA,0.00,WeatherDisplay:10.37,2013-02-24 03:08:00,
2013-02-23 19:13:00,41.9,35.6,30.33,WSW,243,0.0,2.0,78,0.00,-RA,-RA,0.00,WeatherDisplay:10.37,2013-02-24 03:13:00,
2013-02-23 19:18:00,41.7,35.7,30.34,NNW,337,0.0,1.0,79,0.00,-RA,-RA,0.00,WeatherDisplay:10.37,2013-02-24 03:18:00,
2013-02-23 19:23:00,41.6,35.5,30.34,ESE,114,0.0,1.0,79,0.00,-RA,-RA,0.00,WeatherDisplay:10.37,2013-02-24 03:23:00,
2013-02-23 19:28:00,41.4,35.4,30.34,SSE,160,0.0,1.0,79,0.00,-RA,-RA,0.00,WeatherDisplay:10.37,2013-02-24 03:28:00,
2013-02-23 19:33:00,41.3,35.0,30.34,South,176,0.0,3.0,78,0.00,-RA,-RA,0.00,WeatherDisplay:10.37,2013-02-24 03:33:00,
2013-02-23 19:38:00,41.2,34.9,30.34,South,171,0.0,0.0,78,0.00,-RA,-RA,0.00,WeatherDisplay:10.37,2013-02-24 03:38:00,
2013-02-23 19:43:00,41.2,35.2,30.35,SW,225,0.0,1.0,79,0.00,-RA,-RA,0.00,WeatherDisplay:10.37,2013-02-24 03:43:00,
2013-02-23 19:48:00,41.2,34.8,30.35,West,259,1.0,3.0,78,0.00,-RA,-RA,0.00,WeatherDisplay:10.37,2013-02-24 03:48:00,
2013-02-23 19:53:00,41.1,34.8,30.35,SSW,196,0.0,2.0,78,0.00,-RA,-RA,0.00,WeatherDisplay:10.37,2013-02-24 03:53:00,
2013-02-23 19:58:00,41.1,34.8,30.36,South,189,0.0,1.0,78,0.00,-RA,-RA,0.00,WeatherDisplay:10.37,2013-02-24 03:58:00,
2013-02-23 20:03:00,41.0,34.7,30.36,WSW,248,0.0,2.0,78,0.00,-RA,-RA,0.00,WeatherDisplay:10.37,2013-02-24 04:03:00,
2013-02-23 20:08:00,40.9,34.9,30.36,West,264,0.0,3.0,79,0.00,-RA,-RA,0.00,WeatherDisplay:10.37,2013-02-24 04:08:00,
2013-02-23 20:13:00,40.8,34.8,30.36,NW,320,0.0,3.0,79,0.00,-RA,-RA,0.00,WeatherDisplay:10.37,2013-02-24 04:13:00,
2013-02-23 20:18:00,40.6,35.0,30.36,NW,307,1.0,1.0,80,0.00,-RA,-RA,0.00,WeatherDisplay:10.37,2013-02-24 04:18:00,
2013-02-23 20:23:00,40.5,34.8,30.36,SE,127,0.0,1.0,80,0.00,-RA,-RA,0.00,WeatherDisplay:10.37,2013-02-24 04:23:00,
2013-02-23 20:28:00,40.4,34.7,30.36,ENE,62,0.0,2.0,80,0.00,-RA,-RA,0.00,WeatherDisplay:10.37,2013-02-24 04:28:00,
2013-02-23 20:33:00,40.4,34.4,30.37,West,272,0.0,2.0,79,0.00,-RA,-RA,0.00,WeatherDisplay:10.37,2013-02-24 04:33:00,
2013-02-23 20:38:00,40.4,34.4,30.36,WSW,248,1.0,4.0,79,0.00,-RA,-RA,0.00,WeatherDisplay:10.37,2013-02-24 04:38:00,
2013-02-23 20:43:00,40.4,34.4,30.37,West,280,0.0,2.0,79,0.00,-RA,-RA,0.00,WeatherDisplay:10.37,2013-02-24 04:43:00,
2013-02-23 20:48:00,40.4,34.1,30.37,NW,304,0.0,3.0,78,0.00,-RA,-RA,0.00,WeatherDisplay:10.37,2013-02-24 04:48:00,
2013-02-23 20:53:00,40.4,34.1,30.37,SSW,207,0.0,2.0,78,0.00,-RA,-RA,0.00,WeatherDisplay:10.37,2013-02-24 04:53:00,
2013-02-23 20:58:00,40.4,34.1,30.37,SSW,213,1.0,2.0,78,0.00,-RA,-RA,0.00,WeatherDisplay:10.37,2013-02-24 04:58:00,
2013-02-23 21:03:00,40.4,34.1,30.37,West,276,0.0,4.0,78,0.00,-RA,-RA,0.00,WeatherDisplay:10.37,2013-02-24 05:03:00,
2013-02-23 21:08:00,40.4,34.1,30.37,WSW,253,1.0,3.0,78,0.00,-RA,-RA,0.00,WeatherDisplay:10.37,2013-02-24 05:08:00,
2013-02-23 21:13:00,40.3,34.0,30.38,West,261,0.0,5.0,78,0.00,-RA,-RA,0.00,WeatherDisplay:10.37,2013-02-24 05:13:00,
2013-02-23 21:18:00,40.3,34.0,30.37,West,264,1.0,3.0,78,0.00,-RA,-RA,0.00,WeatherDisplay:10.37,2013-02-24 05:18:00,
2013-02-23 21:23:00,40.2,34.2,30.38,West,278,0.0,3.0,79,0.00,-RA,-RA,0.00,WeatherDisplay:10.37,2013-02-24 05:23:00,
2013-02-23 21:28:00,40.0,34.0,30.37,WNW,286,0.0,3.0,79,0.00,-RA,-RA,0.00,WeatherDisplay:10.37,2013-02-24 05:28:00,
2013-02-23 21:33:00,39.8,33.8,30.37,West,265,2.0,4.0,79,0.00,-RA,-RA,0.00,WeatherDisplay:10.37,2013-02-24 05:33:00,
2013-02-23 21:38:00,39.7,34.0,30.38,West,263,0.0,2.0,80,0.00,-RA,-RA,0.00,WeatherDisplay:10.37,2013-02-24 05:38:00,
2013-02-23 21:43:00,39.5,33.8,30.38,SSW,199,0.0,1.0,80,0.00,-RA,-RA,0.00,WeatherDisplay:10.37,2013-02-24 05:43:00,
2013-02-23 21:48:00,39.2,33.9,30.38,SSE,164,0.0,2.0,81,0.00,-RA,-RA,0.00,WeatherDisplay:10.37,2013-02-24 05:48:00,
2013-02-23 21:53:00,39.1,33.7,30.38,SW,224,0.0,1.0,81,0.00,-RA,-RA,0.00,WeatherDisplay:10.37,2013-02-24 05:53:00,
2013-02-23 21:58:00,38.9,33.9,30.39,West,260,0.0,2.0,82,0.00,-RA,-RA,0.00,WeatherDisplay:10.37,2013-02-24 05:58:00,
2013-02-23 22:03:00,38.8,33.7,30.38,WSW,250,0.0,1.0,82,0.00,-RA,-RA,0.00,WeatherDisplay:10.37,2013-02-24 06:03:00,
2013-02-23 22:08:00,38.7,33.6,30.39,WSW,244,1.0,2.0,82,0.00,-RA,-RA,0.00,WeatherDisplay:10.37,2013-02-24 06:08:00,
2013-02-23 22:13:00,38.6,33.9,30.39,SW,233,0.0,1.0,83,0.00,-RA,-RA,0.00,WeatherDisplay:10.37,2013-02-24 06:13:00,
2013-02-23 22:18:00,38.7,34.0,30.39,SSE,147,0.0,1.0,83,0.00,-RA,-RA,0.00,WeatherDisplay:10.37,2013-02-24 06:18:00,
2013-02-23 22:23:00,38.7,34.0,30.39,SSE,147,1.0,3.0,83,0.00,-RA,-RA,0.00,WeatherDisplay:10.37,2013-02-24 06:23:00,
2013-02-23 22:28:00,38.8,34.1,30.38,SW,234,1.0,3.0,83,0.00,-RA,-RA,0.00,WeatherDisplay:10.37,2013-02-24 06:28:00,
2013-02-23 22:33:00,38.9,34.2,30.39,NE,51,0.0,1.0,83,0.00,-RA,-RA,0.00,WeatherDisplay:10.37,2013-02-24 06:33:00,
2013-02-23 22:38:00,38.9,34.2,30.39,East,80,0.0,1.0,83,0.00,-RA,-RA,0.00,WeatherDisplay:10.37,2013-02-24 06:38:00,
2013-02-23 22:43:00,38.9,34.2,30.39,South,178,0.0,1.0,83,0.00,-RA,-RA,0.00,WeatherDisplay:10.37,2013-02-24 06:43:00,
2013-02-23 22:48:00,38.9,34.2,30.39,SSE,154,1.0,2.0,83,0.00,-RA,-RA,0.00,WeatherDisplay:10.37,2013-02-24 06:48:00,
2013-02-23 22:53:00,38.9,34.2,30.39,SSE,153,0.0,1.0,83,0.00,-RA,-RA,0.00,WeatherDisplay:10.37,2013-02-24 06:53:00,
2013-02-23 22:58:00,38.9,34.2,30.39,WSW,247,0.0,2.0,83,0.00,-RA,-RA,0.00,WeatherDisplay:10.37,2013-02-24 06:58:00,
2013-02-23 23:03:00,38.9,34.2,30.39,SSW,212,0.0,3.0,83,0.00,-RA,-RA,0.00,WeatherDisplay:10.37,2013-02-24 07:03:00,
2013-02-23 23:08:00,39.0,34.3,30.39,SSW,193,0.0,1.0,83,0.00,-RA,-RA,0.00,WeatherDisplay:10.37,2013-02-24 07:08:00,
2013-02-23 23:13:00,39.0,34.6,30.39,SW,233,0.0,1.0,84,0.00,-RA,-RA,0.00,WeatherDisplay:10.37,2013-02-24 07:13:00,
2013-02-23 23:18:00,38.9,34.5,30.39,WSW,242,0.0,1.0,84,0.00,-RA,-RA,0.00,WeatherDisplay:10.37,2013-02-24 07:18:00,
2013-02-23 23:23:00,39.0,34.6,30.40,South,175,0.0,1.0,84,0.00,-RA,-RA,0.00,WeatherDisplay:10.37,2013-02-24 07:23:00,
2013-02-23 23:28:00,39.0,34.6,30.40,East,95,0.0,1.0,84,0.00,-RA,-RA,0.00,WeatherDisplay:10.37,2013-02-24 07:28:00,
2013-02-23 23:33:00,39.1,34.7,30.40,SSE,153,0.0,4.0,84,0.00,-RA,-RA,0.00,WeatherDisplay:10.37,2013-02-24 07:33:00,
2013-02-23 23:38:00,39.1,34.7,30.40,SW,226,0.0,1.0,84,0.00,-RA,-RA,0.00,WeatherDisplay:10.37,2013-02-24 07:38:00,
2013-02-23 23:43:00,39.1,34.7,30.40,West,262,0.0,1.0,84,0.00,-RA,-RA,0.00,WeatherDisplay:10.37,2013-02-24 07:43:00,
2013-02-23 23:48:00,39.1,34.7,30.40,WSW,249,0.0,3.0,84,0.00,-RA,-RA,0.00,WeatherDisplay:10.37,2013-02-24 07:48:00,
2013-02-23 23:53:00,39.2,34.8,30.40,SW,232,0.0,1.0,84,0.00,-RA,-RA,0.00,WeatherDisplay:10.37,2013-02-24 07:53:00,
2013-02-23 23:58:00,39.2,34.8,30.40,SSE,162,0.0,1.0,84,0.00,-RA,-RA,0.00,WeatherDisplay:10.37,2013-02-24 07:58:00,